ECMWFNIL_925_temp_021.txt.gz
Temp
27 26 26 26 27 27 27 26 26 26 26 26 26 25 25 25 25 25 25 24 23 23 23 23 22 22 22 22 22 22 22 22 23 23 22 22 22 23 23 23 23 23
27 27 26 27 27 26 27 27 26 26 26 26 26 26 26 25 25 25 25 24 23 23 23 22 22 22 22 22 22 22 22 22 22 23 22 22 22 23 23 23 23 22
27 27 27 27 27 27 27 27 26 26 26 26 26 26 26 25 25 24 24 24 23 23 23 22 22 22 22 22 22 22 22 22 22 23 23 22 22 22 23 23 23 23
27 27 27 27 27 27 27 27 26 26 26 26 26 26 25 25 25 24 24 23 23 23 23 22 22 22 22 22 22 22 22 22 22 22 22 22 22 22 22 22 22 23
27 27 27 27 27 27 27 26 26 26 26 26 26 25 25 24 24 24 23 23 23 23 23 22 22 22 22 22 22 21 22 22 22 22 22 22 22 22 22 22 22 22
27 27 27 27 27 27 27 26 26 26 26 27 26 25 25 24 24 24 23 23 23 23 23 22 22 22 22 22 21 21 21 22 22 23 22 22 22 22 22 22 22 22
27 27 27 27 27 27 27 26 26 26 26 27 26 25 24 24 24 24 23 23 23 23 23 22 22 22 22 22 21 21 21 22 22 23 22 22 22 22 22 22 22 22
27 27 27 27 27 27 26 26 26 26 26 26 25 25 24 24 24 24 23 23 23 23 23 22 22 22 22 22 21 21 21 21 22 22 22 22 22 22 22 22 22 22
28 27 27 27 27 27 27 27 27 26 26 26 25 25 25 24 24 24 23 23 23 23 22 22 22 22 22 21 21 21 21 21 22 22 22 22 22 22 22 22 22 22
28 28 27 27 27 27 27 28 27 26 26 25 25 25 25 24 24 24 23 23 23 22 22 22 22 21 21 21 21 21 21 21 22 22 22 22 22 22 22 22 22 22
28 28 28 28 28 28 28 28 28 27 26 26 26 26 25 24 24 23 23 22 22 22 22 21 21 21 21 21 21 21 21 21 21 21 21 22 22 22 22 22 22 22
28 28 28 28 28 29 28 28 28 27 26 26 26 26 26 24 24 23 23 22 22 22 22 21 21 21 20 21 21 21 21 21 21 21 21 22 22 22 22 22 22 22
29 28 28 28 28 29 28 28 28 28 28 27 26 26 26 25 24 23 23 22 22 22 22 21 21 21 20 20 21 21 21 21 21 22 22 22 22 22 22 22 22 22
29 28 28 28 28 28 28 28 28 28 29 28 26 26 27 26 24 23 23 22 22 22 21 21 21 21 20 20 21 21 21 21 21 22 22 22 22 22 22 22 23 23
29 28 28 28 28 28 28 27 27 28 29 28 27 26 27 26 24 23 23 22 22 22 21 21 21 20 20 20 21 21 21 21 21 22 22 22 22 22 22 22 22 23
28 28 28 27 27 27 27 27 27 27 28 28 27 26 26 26 24 24 23 23 22 21 21 21 20 20 21 21 21 21 21 21 22 22 22 22 22 22 22 22 22 23
28 27 27 27 26 27 27 26 26 27 27 27 26 25 25 25 24 24 23 23 22 22 21 21 20 20 21 21 21 21 21 22 22 22 22 22 22 22 22 22 22 23
27 27 27 26 26 26 26 26 26 26 26 25 25 25 25 24 24 23 23 23 22 22 22 21 21 20 20 21 21 21 21 22 22 22 22 22 22 22 22 22 23 23
27 27 26 26 25 25 25 25 25 25 25 24 24 24 24 23 23 23 23 23 22 22 22 21 21 21 20 20 21 21 21 21 22 23 23 23 23 23 23 23 22 22
27 27 26 25 25 25 24 25 25 25 25 24 24 24 23 23 23 22 22 22 22 21 21 21 21 21 20 20 21 21 21 21 22 22 23 23 23 23 23 22 21 21
27 27 26 26 25 25 24 24 24 25 24 24 24 24 23 22 23 22 22 21 21 21 21 21 21 21 21 21 21 21 21 21 21 21 22 22 22 22 22 22 21 20
27 27 26 26 26 25 25 24 24 24 24 24 24 24 23 22 22 22 22 21 21 21 21 21 22 22 22 21 21 21 21 21 20 21 21 22 22 22 22 21 20 20
27 26 26 26 26 25 25 24 24 24 24 24 24 24 23 23 22 22 22 21 21 21 21 21 22 22 22 22 21 21 21 20 20 21 21 22 22 21 21 20 20 20
27 26 26 26 26 25 25 25 24 24 24 24 24 24 24 23 23 22 22 21 21 21 21 21 22 22 22 21 21 21 21 20 20 21 21 21 21 20 20 20 20 20
27 26 26 26 26 26 26 25 24 24 24 23 23 24 24 23 23 23 22 21 21 21 21 21 22 22 21 21 21 21 21 21 20 21 21 20 20 20 19 19 19 19
26 26 26 26 25 26 26 25 24 24 24 24 23 23 23 23 23 22 21 21 21 21 21 21 21 21 21 21 20 21 21 21 20 20 20 20 20 20 19 19 19 19

ECMWFNIL_925_temp_024.txt.gz
Temp
27 27 26 27 27 27 27 26 26 26 26 25 25 25 25 25 25 25 25 24 24 24 24 23 23 23 23 23 23 23 23 23 23 23 23 22 22 23 23 23 23 23
27 27 26 26 26 27 27 26 26 26 26 26 25 25 25 25 25 25 25 24 24 24 23 23 23 23 23 22 22 22 22 22 23 23 23 22 22 23 23 23 23 23
27 27 26 26 26 26 27 27 26 26 26 26 26 25 25 25 25 25 25 24 24 24 23 23 23 22 22 22 22 22 22 22 22 23 23 22 22 22 23 23 23 23
27 26 27 26 26 26 27 27 26 26 26 26 26 26 25 25 25 25 25 24 24 24 23 23 22 22 22 22 22 22 22 22 22 22 23 23 22 22 22 23 23 23
27 27 27 27 27 27 27 27 27 26 26 26 26 26 26 26 26 25 25 25 24 24 23 23 22 22 22 22 22 22 22 22 22 22 22 22 22 22 22 22 22 22
27 27 27 27 27 27 27 27 27 26 26 26 26 26 26 26 26 25 25 24 24 23 23 23 22 22 22 22 22 22 22 22 22 22 22 22 22 22 22 22 22 22
27 27 27 27 27 27 27 27 27 27 26 26 26 26 26 26 25 25 24 24 24 23 23 23 22 22 22 22 22 22 22 22 22 22 22 22 22 22 22 22 22 22
27 27 27 27 27 27 27 27 27 27 26 26 27 26 26 25 25 25 24 24 24 23 23 23 22 22 22 22 22 21 21 21 22 22 22 22 22 22 22 22 22 22
27 27 27 27 27 27 27 27 27 27 26 27 27 26 26 25 25 25 24 24 24 23 23 23 23 22 22 22 22 21 21 21 21 22 22 22 22 22 22 22 22 22
28 27 27 27 27 27 27 27 27 27 27 27 27 26 26 25 25 25 24 24 24 23 23 23 23 22 22 22 22 21 21 21 21 22 22 22 22 22 22 21 21 22
28 28 27 27 27 27 28 28 27 27 27 27 27 27 26 25 25 24 24 24 23 23 23 23 23 22 22 22 22 22 21 21 21 21 22 22 22 22 22 21 22 22
28 28 28 28 28 28 28 28 28 27 27 27 27 27 26 25 25 24 24 24 23 23 23 23 23 22 22 22 22 21 21 21 21 21 22 22 21 22 22 22 22 22
28 28 28 28 28 28 28 28 28 28 28 27 27 27 26 25 25 24 24 24 23 23 23 23 23 22 22 22 22 21 21 21 21 21 21 22 21 22 22 22 22 22
29 29 29 28 28 28 29 29 29 29 29 28 27 27 26 26 25 24 24 24 23 23 23 23 22 22 22 22 21 21 21 21 21 21 21 21 21 21 22 22 22 22
29 29 29 29 28 29 29 29 29 29 29 28 27 27 27 26 26 25 24 24 23 23 23 23 22 22 22 21 21 21 21 21 21 21 21 21 21 22 22 22 22 22
29 29 29 29 29 28 29 29 29 29 29 28 27 27 27 27 26 25 24 24 23 23 23 22 22 22 22 21 21 21 21 21 21 21 21 21 22 22 22 22 22 22
29 29 29 29 29 28 28 29 29 29 29 28 28 27 27 27 27 25 24 23 23 23 22 22 22 22 22 22 22 21 21 21 21 21 21 21 22 22 22 22 22 22
29 29 29 28 28 28 28 28 28 29 29 28 28 27 27 27 27 26 25 24 23 22 23 23 22 22 22 22 22 22 21 21 21 21 21 21 22 22 22 22 22 22
29 29 29 28 28 28 28 28 28 28 28 28 28 27 27 27 27 26 25 24 23 23 23 23 22 22 22 22 22 22 21 21 21 21 21 22 22 22 22 22 22 22
29 29 28 28 28 28 28 28 27 27 27 27 27 27 27 26 26 25 25 24 24 23 23 23 22 22 22 22 22 22 21 21 21 21 21 22 22 22 22 22 22 22
29 28 28 27 27 27 27 27 27 27 27 26 26 26 26 26 25 25 25 24 24 23 23 23 22 22 22 22 22 22 21 21 21 21 21 22 22 22 22 22 22 22
28 27 27 27 26 26 26 26 26 26 26 26 26 26 25 25 24 24 24 24 24 23 23 23 23 22 22 22 22 22 22 22 21 21 21 21 22 22 23 22 22 22
27 27 26 26 26 26 25 25 26 26 25 25 25 25 25 24 24 24 24 23 23 23 23 23 23 22 22 22 22 22 21 21 21 20 20 20 21 22 22 22 22 22
27 27 26 26 26 26 25 25 25 25 25 25 25 25 25 25 24 24 24 23 23 22 22 22 22 22 22 22 22 22 21 21 21 20 20 20 20 21 22 22 22 21
27 27 27 26 26 26 26 25 25 25 25 25 25 25 26 25 25 24 24 23 23 22 22 22 22 22 22 22 22 22 21 21 20 20 19 20 20 21 22 21 20 19
27 27 27 26 26 26 26 25 25 25 25 25 25 25 25 25 25 24 24 24 23 23 22 22 22 22 22 22 22 22 22 21 20 20 19 20 20 20 20 18 17 18

ECMWFNIL_925_temp_030.txt.gz
Temp
25 25 25 25 25 25 25 25 25 25 25 25 25 24 24 24 24 24 23 23 23 23 23 23 23 23 23 23 23 23 23 23 23 23 22 22 22 23 23 23 23 22
25 25 25 25 25 25 25 25 26 26 25 25 25 25 24 24 24 24 23 23 23 23 23 23 23 23 23 23 23 23 23 23 23 23 22 22 22 22 23 23 22 22
25 25 25 25 25 25 25 25 25 25 25 25 25 25 24 24 24 24 24 23 23 23 23 23 23 23 23 23 23 23 23 23 23 22 22 22 22 22 22 22 22 22
25 25 25 25 25 25 25 25 25 25 25 25 25 25 24 24 24 24 24 23 23 23 23 23 23 23 23 23 23 23 23 23 23 22 22 22 22 22 22 22 22 22
25 25 25 25 25 25 25 25 25 25 25 25 25 25 24 24 24 24 24 23 23 23 23 23 23 23 23 23 23 23 23 23 23 22 22 22 22 22 22 22 22 22
25 25 25 24 24 24 24 25 25 25 25 25 25 25 25 25 24 24 24 23 23 23 23 23 23 23 23 23 23 23 23 23 23 22 22 22 22 22 22 22 22 22
25 25 24 24 24 24 24 25 25 25 25 25 25 25 25 24 24 24 24 23 23 23 23 23 23 23 23 23 23 23 23 23 22 22 22 22 22 22 22 22 22 22
25 25 24 24 24 24 24 24 25 25 25 25 24 25 25 24 24 24 24 23 23 23 23 23 23 23 23 23 23 23 23 22 22 22 22 22 22 22 22 22 22 22
25 25 24 24 24 24 24 24 24 25 25 25 25 24 24 24 24 24 24 24 23 23 23 23 23 23 23 23 23 23 23 22 22 22 22 22 22 22 22 22 22 22
25 25 24 24 24 24 24 24 24 24 24 25 25 24 24 24 24 24 24 24 24 23 23 23 23 23 23 23 23 23 23 22 22 22 22 22 22 22 22 22 22 22
25 25 24 24 24 24 24 24 24 24 24 24 24 24 24 24 24 24 24 23 23 23 23 23 23 23 23 23 23 23 23 22 22 22 22 22 22 22 21 21 21 22
25 25 25 24 24 24 24 24 24 24 24 24 24 24 24 24 24 24 24 24 23 23 23 23 23 23 23 23 23 23 23 22 22 21 21 21 21 21 21 21 21 22
25 25 25 25 25 25 24 25 25 24 24 24 24 24 24 24 24 24 24 24 24 23 23 23 23 23 23 23 23 23 23 22 22 21 21 21 21 21 21 21 21 21
25 25 25 25 25 25 25 25 25 25 25 24 24 24 24 24 24 24 23 23 23 23 23 23 23 23 23 22 22 22 22 22 21 21 21 21 21 21 21 21 21 21
25 25 25 25 25 25 25 25 25 25 25 25 24 24 24 24 24 24 23 23 23 23 23 23 23 23 22 22 22 22 22 22 21 21 21 21 20 20 21 21 21 21
25 25 25 25 25 25 25 25 25 25 25 25 24 24 24 24 24 24 24 23 23 23 23 23 22 22 22 22 22 22 22 22 21 21 21 21 20 20 20 20 21 21
25 25 25 25 25 25 25 25 25 25 25 25 25 24 24 24 24 24 24 24 23 23 23 23 22 22 22 22 22 22 22 22 22 21 21 20 20 20 20 20 20 21
26 25 25 25 25 25 25 25 25 25 25 25 25 24 24 24 24 24 24 24 23 23 23 23 23 23 22 22 22 22 22 22 22 22 21 20 20 20 20 20 20 20
26 26 25 25 25 25 25 25 25 25 25 25 25 25 24 24 24 24 24 24 24 23 23 23 23 23 22 22 22 22 22 22 22 22 21 20 20 20 20 20 20 20
26 26 25 25 25 25 25 25 25 25 25 25 25 25 25 24 24 24 24 24 24 24 23 23 23 23 23 22 22 22 22 22 22 22 21 20 20 20 20 20 20 20
26 26 26 26 25 25 25 25 25 25 25 25 25 25 25 25 25 25 24 24 24 24 23 23 23 23 22 22 22 22 22 22 22 21 21 20 20 20 20 20 20 20
27 26 26 26 25 25 25 25 25 25 25 25 25 25 25 25 25 25 25 24 24 24 24 23 23 23 22 22 22 22 22 22 22 21 21 20 20 20 21 21 20 20
27 26 26 26 26 25 25 25 25 25 25 25 25 25 25 25 25 25 25 24 24 24 24 23 23 22 22 22 22 22 22 22 21 21 20 20 20 20 21 20 20 20
27 27 26 26 26 26 25 25 25 25 25 25 25 25 25 25 25 25 25 24 24 24 24 23 22 22 22 22 22 22 22 22 21 21 20 20 20 20 20 20 20 20
27 27 27 26 26 26 26 26 25 25 25 25 25 25 25 25 25 25 24 24 24 24 23 23 22 22 22 22 22 22 22 22 21 20 20 20 20 19 19 20 20 20
28 27 27 27 26 26 26 26 26 26 25 25 25 25 25 25 25 24 24 24 23 23 23 23 23 22 22 22 22 22 22 22 21 20 20 20 19 19 19 19 20 20

ECMWFNIL_925_temp_033.txt.gz
Temp
24 24 24 24 24 24 24 24 24 24 24 24 24 24 25 25 25 24 24 24 23 23 23 23 23 23 23 23 23 22 23 23 23 23 22 22 22 22 22 22 22 23
24 24 24 24 24 24 24 24 24 24 24 24 25 25 25 25 25 24 24 24 23 23 23 23 23 23 23 23 23 23 23 23 23 23 22 22 22 22 22 22 22 22
24 24 24 24 24 24 24 24 24 24 24 24 24 25 25 25 25 24 24 24 23 23 23 23 23 23 22 23 23 23 23 23 23 22 22 22 22 22 22 22 22 22
24 24 24 24 24 24 24 24 24 24 24 24 24 24 25 25 24 24 24 24 24 23 23 23 23 23 22 22 23 23 23 23 23 23 22 23 22 22 22 22 22 22
24 24 24 24 24 24 24 24 24 24 24 24 24 25 25 25 24 24 24 24 23 23 23 23 23 23 22 22 22 23 23 23 23 23 22 23 22 22 22 22 22 22
24 24 24 24 24 24 24 24 24 24 24 24 24 24 24 24 24 24 24 24 24 23 23 23 23 23 22 22 22 22 22 23 23 23 23 22 22 22 22 22 22 22
24 24 24 24 24 24 24 24 24 24 24 24 24 24 24 24 24 24 24 24 24 24 23 23 23 23 23 22 22 22 22 23 23 23 23 22 22 22 22 22 22 22
24 24 24 24 24 24 24 24 24 24 24 24 24 24 24 24 24 24 24 24 24 24 23 23 23 23 23 22 22 22 22 23 23 23 23 22 22 22 22 22 22 22
24 24 24 24 24 24 24 24 24 24 24 24 24 24 24 24 24 24 23 23 23 23 23 23 23 23 23 23 22 22 22 22 22 23 23 22 22 22 22 22 22 22
24 24 24 24 24 24 24 24 24 24 24 24 24 24 24 24 24 23 23 23 23 23 23 23 23 23 23 23 23 22 22 22 22 22 22 22 22 22 22 22 22 22
24 24 24 24 24 24 24 24 24 24 24 24 23 23 23 23 23 23 23 23 23 23 23 23 23 23 23 23 22 22 22 22 22 22 22 22 22 22 21 22 22 22
24 24 24 24 24 24 24 24 24 24 24 24 23 23 23 23 23 23 23 23 23 23 23 23 23 23 23 23 22 22 22 22 22 22 22 22 22 22 21 21 21 21
24 24 24 24 24 24 24 24 24 24 24 23 23 23 23 23 23 23 23 23 23 23 23 23 23 22 22 22 22 22 22 22 22 22 22 22 22 21 21 21 21 21
25 24 24 24 24 24 24 24 24 24 24 24 23 23 23 23 23 23 23 23 23 22 23 22 22 22 22 22 22 22 22 22 21 21 21 21 21 21 21 21 21 21
25 25 24 24 24 24 24 24 24 24 24 24 23 23 23 23 23 23 23 22 22 22 22 22 22 22 22 22 22 22 21 21 21 21 21 21 21 21 21 21 21 21
25 25 24 24 24 24 24 24 24 24 24 23 23 23 23 23 23 23 23 23 22 22 22 22 22 22 22 22 22 22 21 21 21 21 21 21 21 21 20 20 21 21
25 25 24 24 24 24 24 24 24 24 24 23 23 23 23 23 23 23 23 23 23 22 22 22 22 22 22 22 22 22 22 21 21 21 21 21 21 21 21 20 20 20
25 25 24 24 24 24 24 24 24 24 24 23 23 23 23 23 23 23 23 23 23 22 22 22 22 22 22 22 22 22 22 22 21 21 21 21 21 21 21 20 20 20
25 25 25 24 24 24 24 24 24 23 23 23 23 23 23 23 23 23 23 23 23 22 22 22 22 22 22 22 22 22 22 22 22 21 21 21 21 21 21 20 20 20
25 25 25 24 24 24 24 24 24 23 24 23 23 23 23 23 23 23 23 23 23 23 23 22 22 22 22 22 21 22 22 22 22 21 21 21 21 21 21 21 20 20
25 25 25 24 24 24 24 24 24 24 23 23 23 23 23 23 23 23 23 23 23 23 23 23 22 22 22 22 22 22 22 22 22 21 21 21 21 21 21 21 20 20
25 25 25 25 24 24 24 24 24 24 23 23 23 23 23 23 23 23 23 23 23 23 23 23 22 22 22 22 22 22 22 22 22 21 21 21 21 21 21 21 20 20
26 25 25 25 24 24 24 24 24 24 24 24 23 23 23 23 23 23 23 23 23 23 23 23 22 22 22 22 22 22 22 22 22 21 21 20 21 21 21 20 20 20
26 26 25 25 25 24 24 24 24 24 24 24 24 24 24 23 23 23 23 23 23 23 23 23 22 22 22 22 22 23 22 22 22 21 20 20 20 20 20 20 20 20
26 26 26 25 25 25 24 24 24 24 24 24 24 24 24 24 24 24 23 23 23 23 23 23 23 23 23 22 23 23 22 22 21 21 20 20 20 20 19 20 20 20
27 26 26 26 25 25 25 25 24 24 24 24 24 24 24 24 24 24 24 24 23 23 23 23 23 23 23 23 23 23 22 22 21 20 20 20 20 19 19 20 19 19